Flag for Indonesia Weather past 2 weeks in Makassar, South Sulawesi, Indonesia

Now
75 °F

Passing clouds.


Feels Like: 76 °F
Forecast: 77 / 89 °F
Wind: 3 mph from Southeast

Location: Ujung Pandang / Hasanuddin

Current Time: Jul 27, 2014 at 12:09:52 AM

Latest Report: Jul 26, 2014 at 11:30 PM


Visibility: 5 mi

Pressure: 29.92 "Hg

Humidity: 78%

Dew point: 68 °F

Location of MakassarLocation

Historic Weather in Makassar — Graph

°F

Makassar temperature yesterday

Maximum temperature yesterday: 91 °F (at 12:00 PM)
Minimum temperature yesterday: 72 °F (at 3:30 AM)
Average temperature yesterday: 81 °F

Past Weeks' High & Low Weather Summary

 TemperatureHumidityPressure
High93 °F (Jul 22, 1:30 PM)100% (Jul 17, 12:00 AM)29.95 "Hg (Jul 17, 12:00 AM)
Low68 °F (Jul 24, 2:30 AM)44% (Jul 22, 12:00 PM)29.74 "Hg (Jul 18, 2:30 PM)
Average80 °F80%29.85 "Hg
* Reported Jul 12 5:00 PM — Jul 26 11:00 PM, Makassar, Weather by CustomWeather, © 2014

Note: Actual official high and low records may vary slightly from our data, if they occured in-between our weather recording intervals... More about our weather records

Advertising

Makassar weather history for previous 24 hours

 ConditionsComfort  
Time TempWeatherWind HumidityBarometerVisibility
11:00 PM
Jul 26
75 °FPassing clouds.2 mph83%29.92 "Hg5 mi
10:30 PM75 °FPassing clouds.5 mph78%29.92 "Hg5 mi
10:00 PM75 °FPassing clouds.2 mph83%29.92 "Hg5 mi
9:30 PM77 °FPassing clouds.3 mph79%29.92 "Hg5 mi
9:00 PM77 °FPassing clouds.6 mph79%29.92 "Hg5 mi
8:30 PM79 °FPassing clouds.6 mph74%29.92 "Hg5 mi
8:00 PM79 °FPassing clouds.5 mph79%29.89 "Hg5 mi
7:30 PM79 °FPassing clouds.5 mph84%29.89 "HgN/A
7:00 PM81 °FPassing clouds.5 mph79%29.89 "HgN/A
6:30 PM82 °FPassing clouds.5 mph74%29.86 "HgN/A
5:30 PM88 °FPassing clouds.2 mph59%29.86 "HgN/A
5:00 PM88 °FPassing clouds.5 mph59%29.86 "HgN/A
4:30 PM88 °FPassing clouds.7 mph55%29.83 "HgN/A
4:00 PM90 °FPassing clouds.7 mph55%29.83 "HgN/A
3:30 PM90 °FPassing clouds.6 mph52%29.83 "HgN/A
3:00 PM90 °FPassing clouds.7 mph52%29.83 "HgN/A
2:30 PM90 °FPassing clouds.8 mph52%29.86 "HgN/A
2:00 PM88 °FPassing clouds.10 mph55%29.86 "HgN/A
1:30 PM90 °FPassing clouds.10 mph55%29.86 "HgN/A
1:00 PM90 °FPassing clouds.9 mph55%29.86 "HgN/A
12:30 PM91 °FPassing clouds.7 mph52%29.89 "HgN/A
12:00 PM91 °FPassing clouds.5 mph56%29.89 "HgN/A
11:30 AM90 °FPassing clouds.3 mph55%29.92 "HgN/A
11:00 AM90 °FSunny.3 mph55%29.92 "Hg10 mi
10:30 AM88 °FPassing clouds.3 mph55%29.92 "HgN/A
10:00 AM86 °FPassing clouds.3 mph62%29.95 "HgN/A
9:30 AM86 °FPassing clouds.5 mph59%29.92 "HgN/A
9:00 AM84 °FPassing clouds.7 mph62%29.95 "HgN/A
8:30 AM82 °FPassing clouds.5 mph70%29.95 "HgN/A
8:00 AM79 °FPassing clouds.5 mph74%29.95 "HgN/A
7:30 AM75 °FPassing clouds.3 mph83%29.92 "HgN/A
7:00 AM73 °FClear.3 mph89%29.92 "Hg6 mi
6:30 AM72 °FClear.5 mph88%29.89 "Hg6 mi
6:00 AM72 °FPassing clouds.3 mph88%29.89 "Hg6 mi
5:30 AM72 °FPassing clouds.3 mph94%29.89 "Hg5 mi
5:00 AM72 °FPassing clouds.2 mph94%29.89 "Hg5 mi
4:00 AM72 °FPassing clouds.3 mph100%29.89 "Hg5 mi
3:30 AM72 °FPassing clouds.3 mph94%29.89 "Hg5 mi
3:00 AM73 °FPassing clouds.2 mph94%29.89 "Hg5 mi
2:30 AM73 °FPassing clouds.3 mph94%29.89 "Hg5 mi
2:00 AM75 °FPassing clouds.2 mph89%29.89 "Hg5 mi
1:30 AM75 °FPassing clouds.3 mph89%29.92 "Hg5 mi
1:00 AM75 °FPassing clouds.3 mph89%29.92 "Hg5 mi
12:30 AM75 °FPassing clouds.3 mph89%29.92 "Hg5 mi
12:00 AM75 °FPassing clouds.5 mph89%29.92 "Hg5 mi
Weather by CustomWeather, © 2014

See weather overviewHow to use our weather pages